Fredericton, New Brunswick

10:20 AM ADT on May 24, 2017 (GMT -0300)
Greater Fredericton Airport

Weather History for CYFC - November, 2012

Change the Weather History Date:

Tuesday, November 20, 2012

  Actual Average Record
Temperature  
Mean Temperature 30 °F -  
Max Temperature 44 °F 33 °F 64 °F (2003)
Min Temperature 17 °F 16 °F 16 °F (2014)
Degree Days  
Heating Degree Days 34    
Moisture  
Dew Point 26 °F    
Average Humidity 85    
Maximum Humidity 100    
Minimum Humidity 38    
Precipitation  
Precipitation 0.00 in 0.15 in - ()
Sea Level Pressure  
Sea Level Pressure 30.22 in    
Wind  
Wind Speed 4 mph ()    
Max Wind Speed 8 mph    
Max Gust Speed -    
Visibility 7.8 miles    
Events      
Averages and records for this station are not official NWS values.
T = Trace of Precipitation, MM = Missing Value Source: Averaged Metar Reports

Daily Weather History Graph

Daily Weather History Graph

Search for Another Location

Airport or City:

Trip Planner

Search our weather history database for the weather conditions in past years. The results will help you decide how hot, cold, wet, or windy it might be!

Date:

Astronomy

Nov. 20, 2012 Rise Set
Actual Time 7:33 AM AST 4:49 PM AST
Civil Twilight 7:00 AM AST 5:22 PM AST
Nautical Twilight 6:24 AM AST 5:59 PM AST
Astronomical Twilight 5:48 AM AST 6:34 PM AST
Moon 12:55 PM AST (11/20) No Moon Set
Length of Visible Light 10h 21m
Length of Day
9h 15m
Waxing Crescent, 51% of the Moon is Illuminated
Nov 20
Waxing Crescent
Nov 28
Full
Dec 6
Last Quarter
Dec 13
New
Dec 20
First Quarter

Hourly Weather History & Observations

Time (AST) Temp. Windchill Dew Point Humidity Pressure Visibility Wind Dir Wind Speed Gust Speed Precip Events Conditions
12:00 AM 24.8 °F 19.1 °F 23.0 °F 93% 30.28 in 9.0 mi SSW 4.6 mph - N/A   Clear
1:00 AM 23.0 °F 15.8 °F 23.0 °F 100% 30.26 in 9.0 mi SW 5.8 mph - N/A   Clear
2:00 AM 24 °F - 23 °F 94% 30.25 in 10 mi SSW 4.6 mph - -  
2:00 AM 23.0 °F 17.0 °F 23.0 °F 100% 30.25 in 9.0 mi SSW 4.6 mph - N/A   Clear
3:00 AM 23.0 °F 15.8 °F 23.0 °F 100% 30.24 in 9.0 mi SSW 5.8 mph - N/A   Clear
4:00 AM 21.2 °F - 21.2 °F 100% 30.22 in 9.0 mi Calm Calm - N/A   Clear
5:00 AM 21.2 °F - 21.2 °F 100% 30.21 in 9.0 mi SW 2.3 mph - N/A   Clear
6:00 AM 17.6 °F 12.3 °F 17.6 °F 100% 30.22 in 9.0 mi SSW 3.5 mph - N/A   Clear
7:00 AM 17.6 °F - 17.6 °F 100% 30.21 in 9.0 mi Calm Calm - N/A   Clear
8:00 AM 18 °F - 17 °F 93% 30.20 in 10 mi SSW 5.8 mph - -  
8:00 AM 17.6 °F 9.3 °F 17.6 °F 100% 30.20 in 9.0 mi SSW 5.8 mph - N/A   Clear
9:00 AM 23.0 °F 18.4 °F 21.2 °F 93% 30.21 in 9.0 mi SSW 3.5 mph - N/A   Clear
10:00 AM 30.2 °F - 24.8 °F 80% 30.20 in 9.0 mi Variable 2.3 mph - N/A   Clear
11:00 AM 35.6 °F 30.7 °F 24.8 °F 65% 30.20 in 9.0 mi NW 5.8 mph - N/A   Clear
12:00 PM 39.2 °F - 24.8 °F 56% 30.18 in 9.0 mi Calm Calm - N/A   Clear
1:00 PM 42.8 °F 40.1 °F 26.6 °F 53% 30.16 in 9.0 mi East 4.6 mph - N/A   Clear
2:00 PM 44 °F - 27 °F 38% 30.16 in 10 mi East 5.8 mph - -  
2:00 PM 44.6 °F 41.4 °F 26.6 °F 49% 30.16 in 9.0 mi East 5.8 mph - N/A   Clear
3:00 PM 44.6 °F - 26.6 °F 49% 30.15 in 9.0 mi Calm Calm - N/A   Clear
4:00 PM 42.8 °F - 26.6 °F 53% 30.16 in 9.0 mi Variable 2.3 mph - N/A   Clear
5:00 PM 37.4 °F - 28.4 °F 70% 30.18 in 9.0 mi East 2.3 mph - N/A   Clear
6:00 PM 30.2 °F 25.4 °F 26.6 °F 86% 30.19 in 9.0 mi NNW 4.6 mph - N/A   Clear
7:00 PM 28.4 °F 24.6 °F 24.8 °F 86% 30.20 in 9.0 mi NW 3.5 mph - N/A   Clear
8:00 PM 33 °F - 28 °F 73% 30.21 in 10 mi NNW 5.8 mph - -  
8:00 PM 33.8 °F 27.7 °F 28.4 °F 81% 30.21 in 9.0 mi North 6.9 mph - N/A   Clear
9:00 PM 28.4 °F - 26.6 °F 93% 30.22 in 9.0 mi NE 2.3 mph - N/A   Clear
10:00 PM 32.0 °F 25.6 °F 30.2 °F 93% 30.23 in 9.0 mi NNE 6.9 mph - N/A   Clear
10:07 PM 30.2 °F 23.4 °F 28.4 °F 93% 30.24 in 9.0 mi NNE 6.9 mph - N/A   Partly Cloudy
10:16 PM 32.0 °F 24.8 °F 30.2 °F 93% 30.24 in 9.0 mi NNE 8.1 mph - N/A   Mostly Cloudy
10:35 PM 33.8 °F 27.0 °F 32.0 °F 93% 30.25 in 5.0 mi NNE 8.1 mph - N/A   Overcast
10:37 PM 33.8 °F 27.7 °F 32.0 °F 93% 30.25 in 5.0 mi NNE 6.9 mph - N/A   Overcast
10:47 PM 33.8 °F 27.7 °F 32.0 °F 93% 30.25 in 2.5 mi NNE 6.9 mph - N/A   Overcast
10:52 PM 33.8 °F 28.6 °F 33.8 °F 100% 30.25 in 1.5 mi NNE 5.8 mph - N/A   Overcast
11:00 PM 33.8 °F 29.6 °F 33.8 °F 100% 30.24 in 1.2 mi NNE 4.6 mph - N/A   Overcast
11:18 PM 33.8 °F 29.6 °F 33.8 °F 100% 30.25 in 2.0 mi North 4.6 mph - N/A   Overcast
11:32 PM 35.6 °F 30.7 °F 35.6 °F 100% 30.25 in 3.0 mi NNE 5.8 mph - N/A   Overcast
11:47 PM 35.6 °F 29.9 °F 35.6 °F 100% 30.26 in 3.0 mi NNE 6.9 mph - N/A   Overcast